Regional Weather Roundup
Issued by NWS

Home | Current Version | Previous Version | Text Only | Print | Product List | Glossary Off
Versions: 1 2 3 4 5 6 7 8 9 10 11 12 13 14 15 16 17 18 19 20 21 22 23 24 25 26 27 28 29 30 31 32 33 34 35 36 37 38 39 40 41 42 43 44 45 46 47 48 49 50

000
ASUS43 KMKX 180121
RWRWI

WISCONSIN REGIONAL WEATHER ROUNDUP
NATIONAL WEATHER SERVICE MILWAUKEE/SULLIVAN WI
700 PM CST WED DEC 17 2014

NOTE: "FAIR" INDICATES FEW OR NO CLOUDS BELOW 12,000 FEET WITH NO
SIGNIFICANT WEATHER AND/OR OBSTRUCTIONS TO VISIBILITY.

WIZ001-002-006>008-014>016-023>028-180200-
NORTHWEST WISCONSIN

CITY           SKY/WX    TMP DP  RH WIND       PRES   REMARKS
SUPERIOR ARPT  CLOUDY    19  15  86 NW3       30.32S
ASHLAND        CLOUDY    22  19  89 VRB3      30.31S
HAYWARD        CLOUDY    18  12  77 N6        30.27F WCI  10
SIREN          PTCLDY    11   8  88 CALM      30.31R
CUMBERLAND     CLEAR     14  10  85 CALM      30.28R
RICE LAKE      MOCLDY    17  11  78 N5        30.30S WCI  10
CHETEK         CLOUDY    17  11  78 CALM      30.29S
LADYSMITH      CLOUDY    20  15  79 NW6       30.27S WCI  12
EAU CLAIRE     MOCLDY    15   8  73 W3        30.29S
MENOMONIE      CLEAR     17  11  78 W3        30.30S
NEW RICHMOND   PTCLDY    13  10  88 CALM      30.30F
OSCEOLA        PTCLDY    13  11  89 CALM      30.33F
$$

WIZ003>005-009-010-017-018-180200-
NORTH CENTRAL WISCONSIN

CITY           SKY/WX    TMP DP  RH WIND       PRES   REMARKS
MANITOWISH WTR CLOUDY    21  19  93 N5        30.21R WCI  15
ARBOR VITAE    CLOUDY    22  19  87 N13G18    30.20S WCI  10
WOODRUFF       CLOUDY    22  19  87 N13G18    30.20S WCI  10
RHINELANDER    CLOUDY    20  17  88 NW5       30.20R WCI  13
EAGLE RIVER    CLOUDY    21  19  91 N10       30.19R WCI  10
LAND O LAKES   CLOUDY    22  19  91 N12G17    30.20S WCI  10
PHILLIPS       CLOUDY    19  16  89 NW5       30.22S WCI  12
TOMAHAWK       CLOUDY    20  17  88 N3        30.21S
MEDFORD        CLOUDY    19  14  81 W6        30.22R WCI  10
MERRILL        CLOUDY    22  17  83 N8        30.21S WCI  12
$$

WIZ029-030-035-036-043>047-180200-
CENTRAL WISCONSIN

CITY           SKY/WX    TMP DP  RH WIND       PRES   REMARKS
WAUSAU         CLOUDY    23  15  71 N7        30.21R WCI  15
MOSINEE        CLOUDY    21  18  86 W7        30.23R WCI  13
MARSHFIELD     CLOUDY    18  12  77 NW10      30.23S WCI   6
STEVENS POINT  CLOUDY    18  11  75 NW5       30.23F WCI  11
WAUPACA        CLOUDY    23  14  68 W7        30.24S WCI  15
WAUTOMA        CLEAR     19  14  81 W5        30.25S WCI  12
WISC RAPIDS    MOCLDY    18  10  71 NW6       30.25S WCI  10
CAMP DOUGLAS   PTCLDY    16  16 100 NW6       30.28R WCI   7
$$

WIZ011>013-019>022-031-037>040-048>050-180200-
NORTHEAST WISCONSIN

CITY           SKY/WX    TMP DP  RH WIND       PRES   REMARKS
ANTIGO         CLOUDY    21  18  91 NW9       30.18S WCI  10
SHAWANO        CLOUDY    27  19  72 NW5       30.23R WCI  22
OCONTO         CLOUDY    26  20  76 NW5       30.21R WCI  21
STURGEON BAY   CLOUDY    27  19  74 NW13      30.20R WCI  16
GREEN BAY      CLOUDY    26  18  71 W10       30.22R WCI  16
MANITOWOC      CLOUDY    26  18  71 NW10      30.21R WCI  16
APPLETON       CLOUDY    21  14  73 W13       30.22S WCI   9
CLINTONVILLE   CLOUDY    25  18  74 W6        30.22S WCI  18
OSHKOSH        CLEAR     21  13  71 W10       30.23S WCI  10
$$

WIZ032>034-041-042-053>061-180200-
SOUTHWEST WISCONSIN

CITY           SKY/WX    TMP DP  RH WIND       PRES   REMARKS
LA CROSSE      CLOUDY    21  12  68 N5        30.32R WCI  15
SPARTA         CLOUDY    19  13  76 N3        30.30S
VIROQUA        CLOUDY    18  14  83 N9        30.25S WCI   7
BOSCOBEL       CLEAR     20  13  74 N5        30.31R WCI  13
PRAIRIE DU CHI CLEAR     22  14  72 NW5       30.30S WCI  15
PLATTEVILLE    CLEAR     20  16  84 CALM      30.28S
$$

WIZ056-057-062-063-064-067-068-180200-
SOUTH CENTRAL WISCONSIN

CITY           SKY/WX    TMP DP  RH WIND       PRES   REMARKS
REEDSBURG      CLOUDY    19  13  76 NW7       30.27R WCI  10
BARABOO/DELLS  CLOUDY    19  13  76 W6        30.26S WCI  11
LONE ROCK      CLOUDY    25  14  63 NW6       30.29S WCI  18
MINERAL POINT  CLOUDY    21  18  86 CALM      30.25S
MADISON        CLOUDY    21  14  74 NW9       30.26R WCI  11
MIDDLETON      CLOUDY    24  15  70 NW9       30.27R WCI  14
WATERTOWN      PTCLDY    20  15  81 NW6       30.25R WCI  13
MONROE         CLOUDY    21  18  86 NW6       30.25S WCI  14
JANESVILLE     CLOUDY    25  18  74 NW6       30.26R WCI  18
$$

WIZ051-052-058>065-066-070>072-180200-
SOUTHEAST WISCONSIN

CITY           SKY/WX    TMP DP  RH WIND       PRES   REMARKS
MILWAUKEE      PTCLDY    23  13  65 W10       30.24R WCI  12
WAUKESHA       PTCLDY    19  12  73 W10       30.24S WCI   8
MILWAUKEE/TIMM CLEAR     21  14  73 W8        30.24S WCI  12
RACINE         PTCLDY    23  14  68 NW8       30.26R WCI  14
BURLINGTON     CLOUDY    22  15  74 NW10      30.26R WCI  11
KENOSHA        CLOUDY    24  16  71 NW9       30.24S WCI  14
FOND DU LAC    CLEAR     21  13  71 NW9       30.23F WCI  11
SHEBOYGAN      PTCLDY    22  14  71 NW10      30.21F WCI  11
WEST BEND      CLEAR     21  14  73 NW12      30.22S WCI   9
JUNEAU         CLEAR     19  14  81 W5        30.24S WCI  13
$$

LSZ147-162-180200-
LAKE SUPERIOR

STATION/POSITION TIME  TEMP    WIND        PRES    WAVE
                       AIR SEA DIR/SP/G            HT/PER
                 (UTC) (F)     (DEG/KT/KT) (MB)    (FT/S)
DEVILS ISLAND    0100   26      50/  9/ 11 1027.6R
PORT WING        0000   21     200/  4/  6 1026.8S
SAXON HARBOR     0000   27     360/ 10/ 13 1025.7R
$$

LMZ867-665-643>646-180200-
LAKE MICHIGAN

STATION/POSITION TIME  TEMP    WIND        PRES    WAVE
                       AIR SEA DIR/SP/G            HT/PER
                 (UTC) (F)     (DEG/KT/KT) (MB)    (FT/S)
CHAMBERS ISLAND  0000   29     310/ 14/ 17 1021.7R
NORTHPORT PIER   0000   30     330/ 21/ 26 1021.0R
SISTER BAY       0013          350/ 24/ 28   N/A
ALGOMA LAKESHORE 0014          310/ 10/ 15   N/A
KEWAUNEE LAKESHO 0100   26     300/  7/ 11 1021.5R
SHEBOYGAN LAKESH 0100   24 35  290/ 13/ 16 1024.2F
PORT WASHINGTON  0040   24     290/  7/ 13 1024.0F
MILWAUKEE LAKESH 0100   24     300/  9/ 12   N/A
KENOSHA   LAKESH 0100   25     320/ 10/ 13 1024.0S
$$

TC  - TEMPERATURE IN CELSIUS
VSB - VISIBILITY IN STATUTE MILES
WCI - WIND CHILL INDEX
HX  - HEAT INDEX



USA.gov is the U.S. government's official web portal to all federal, state and local government web resources and services.